Orbital Elements at Epoch 2459200.5 (2020-Dec-17.0) TDB
Reference: JPL 26 (heliocentric ecliptic J2000)
Element | Value | Uncertainty (1-sigma) | Units |
e | .1332720225127672 | 4.5396e-08 | |
a | 3.052071161190173 | 1.7795e-08 | au |
q | 2.645315464685469 | 1.377e-07 | au |
i | 11.17341158663499 | 4.314e-06 | deg |
node | 158.9586167198888 | 2.2422e-05 | deg |
peri | 249.4426064252621 | 2.8957e-05 | deg |
M | 58.05680834199028 | 1.6047e-05 | deg |
tp | 2458886.419433233668 (2020-Feb-06.91943323) | 8.6572e-05 | TDB |
period | 1947.558042974629 5.33 | 1.7032e-05 4.663e-08 | d yr |
n | .1848468656934862 | 1.6166e-09 | deg/d |
Q | 3.458826857694878 | 2.0166e-08 | au |
|
| | Orbit Determination Parameters
Additional Information
|